Location: Lavington
(51.2833°N, 1.9833°W)
Time: 03:24:37
(UTC+00:00)

Meteor 1-21 - Pass Details

Date: 01 June 2020
Orbit: 843 x 888 km, 81.2° (Epoch: 07 July)

Event Time Altitude Azimuth Distance (km) Brightness Sun altitude
Exits shadow 22:50:14 15° 197° (SSW) 2,146 5.8 -14.6°
Maximum altitude 22:54:59 78° 283° (WNW) 873 4.3 -14.9°
Drops below altitude 10° 23:00:37 10° 11° (N) 2,480 7.7 -15.1°
Sets 23:03:03 0° 13° (NNE) 3,418 8.5 -15.2°
